Previsão horária em Plettenberg

Hoje, 5 Março, Sexta-feira

Tempo Temperatura Precipitação Vento Pressão Humidade
00:00 +1°C° 0 mm 2 m/s 731 mmHg 88%
01:00 +1°C° 0 mm 2 m/s 731 mmHg 91%
02:00 +1°C° 0.1 mm 2 m/s 731 mmHg 92%
03:00 -1°C° 0.1 mm 3 m/s 731 mmHg 94%
04:00 -1°C° 0.1 mm 3 m/s 732 mmHg 95%
05:00 -1°C° 0.1 mm 3 m/s 732 mmHg 94%
06:00 -2°C° 0.1 mm 3 m/s 733 mmHg 92%
07:00 -2°C° 0 mm 3 m/s 733 mmHg 91%
08:00 -2°C° 0 mm 3 m/s 734 mmHg 87%
09:00 -1°C° 0 mm 3 m/s 734 mmHg 82%
10:00 -1°C° 0 mm 3 m/s 735 mmHg 78%
11:00 0°C° 0 mm 3 m/s 735 mmHg 72%
12:00 +1°C° 0 mm 3 m/s 735 mmHg 66%
13:00 +2°C° 0 mm 3 m/s 736 mmHg 61%
14:00 +2°C° 0 mm 3 m/s 736 mmHg 59%
15:00 +2°C° 0 mm 3 m/s 736 mmHg 57%
16:00 +2°C° 0 mm 3 m/s 737 mmHg 56%
17:00 +1°C° 0 mm 2 m/s 737 mmHg 61%
18:00 -1°C° 0 mm 2 m/s 737 mmHg 67%
19:00 0°C° 0 mm 1 m/s 737 mmHg 72%
20:00 -1°C° 0 mm 1 m/s 738 mmHg 72%
21:00 -1°C° 0 mm 1 m/s 738 mmHg 72%
22:00 -1°C° 0 mm 1 m/s 739 mmHg 71%
23:00 -2°C° 0 mm 0 m/s 739 mmHg 71%

Amanhã, 6 Março, Sábado

Tempo Temperatura Precipitação Vento Pressão Humidade
00:00 -2°C° 0 mm 0 m/s 739 mmHg 70%
01:00 -2°C° 0 mm 0 m/s 739 mmHg 70%
02:00 -3°C° 0 mm 0 m/s 739 mmHg 70%
03:00 -3°C° 0 mm 0 m/s 739 mmHg 69%
04:00 -3°C° 0 mm 0 m/s 739 mmHg 69%
05:00 -3°C° 0 mm 0 m/s 739 mmHg 69%
06:00 -3°C° 0 mm 0 m/s 740 mmHg 69%
07:00 -3°C° 0 mm 0 m/s 740 mmHg 68%
08:00 -1°C° 0 mm 0 m/s 740 mmHg 62%
09:00 +2°C° 0 mm 1 m/s 740 mmHg 55%
10:00 +3°C° 0 mm 1 m/s 740 mmHg 48%
11:00 +4°C° 0 mm 1 m/s 740 mmHg 46%
12:00 +5°C° 0 mm 1 m/s 740 mmHg 44%
13:00 +6°C° 0 mm 1 m/s 740 mmHg 41%
14:00 +6°C° 0 mm 1 m/s 740 mmHg 42%
15:00 +6°C° 0 mm 1 m/s 739 mmHg 43%
16:00 +6°C° 0 mm 1 m/s 739 mmHg 43%
17:00 +4°C° 0 mm 1 m/s 739 mmHg 53%
18:00 +2°C° 0 mm 1 m/s 738 mmHg 62%
19:00 0°C° 0 mm 1 m/s 738 mmHg 72%
20:00 0°C° 0 mm 1 m/s 738 mmHg 74%
21:00 0°C° 0 mm 1 m/s 738 mmHg 76%
22:00 0°C° 0 mm 1 m/s 738 mmHg 78%
23:00 -1°C° 0 mm 1 m/s 738 mmHg 78%

Depois de amanhã, 7 Março, Domingo

Tempo Temperatura Precipitação Vento Pressão Humidade
00:00 -1°C° 0 mm 1 m/s 737 mmHg 78%
01:00 -2°C° 0 mm 0 m/s 737 mmHg 78%
02:00 -2°C° 0 mm 0 m/s 737 mmHg 78%
03:00 -2°C° 0 mm 0 m/s 736 mmHg 78%
04:00 -2°C° 0 mm 0 m/s 736 mmHg 78%
05:00 -2°C° 0 mm 0 m/s 736 mmHg 78%
06:00 -2°C° 0 mm 0 m/s 735 mmHg 78%
07:00 -3°C° 0 mm 0 m/s 735 mmHg 78%
08:00 -1°C° 0 mm 0 m/s 735 mmHg 70%
09:00 +1°C° 0 mm 0 m/s 735 mmHg 62%
10:00 +4°C° 0 mm 1 m/s 735 mmHg 54%
11:00 +5°C° 0 mm 1 m/s 735 mmHg 53%
12:00 +6°C° 0 mm 1 m/s 735 mmHg 51%
13:00 +5°C° 0 mm 2 m/s 734 mmHg 50%
14:00 +5°C° 0 mm 2 m/s 734 mmHg 53%
15:00 +5°C° 0 mm 2 m/s 733 mmHg 55%
16:00 +4°C° 0 mm 2 m/s 733 mmHg 57%
17:00 +3°C° 0 mm 2 m/s 732 mmHg 65%
18:00 +1°C° 0 mm 2 m/s 732 mmHg 74%
19:00 0°C° 0 mm 1 m/s 732 mmHg 82%
20:00 0°C° 0 mm 1 m/s 732 mmHg 85%
21:00 -1°C° 0 mm 1 m/s 732 mmHg 89%
22:00 -2°C° 0 mm 1 m/s 733 mmHg 92%
23:00 -2°C° 0 mm 1 m/s 733 mmHg 91%

8 Março, Segunda-feira

Tempo Temperatura Precipitação Vento Pressão Humidade
00:00 -3°C° 0 mm 0 m/s 733 mmHg 91%
01:00 -3°C° 0 mm 0 m/s 733 mmHg 90%
02:00 -3°C° 0 mm 0 m/s 732 mmHg 90%
03:00 -3°C° 0 mm 0 m/s 732 mmHg 90%
04:00 -3°C° 0 mm 0 m/s 732 mmHg 90%
05:00 -3°C° 0 mm 0 m/s 732 mmHg 90%
06:00 -2°C° 0 mm 0 m/s 732 mmHg 89%
07:00 -2°C° 0 mm 0 m/s 732 mmHg 89%
08:00 0°C° 0 mm 1 m/s 732 mmHg 83%
09:00 +2°C° 0 mm 1 m/s 733 mmHg 78%
10:00 +3°C° 0 mm 1 m/s 733 mmHg 72%
11:00 +4°C° 0 mm 1 m/s 733 mmHg 68%
12:00 +5°C° 0 mm 1 m/s 733 mmHg 65%
13:00 +5°C° 0 mm 1 m/s 733 mmHg 62%
14:00 +5°C° 0 mm 1 m/s 733 mmHg 62%
15:00 +5°C° 0 mm 1 m/s 732 mmHg 63%
16:00 +5°C° 0 mm 1 m/s 732 mmHg 64%
17:00 +3°C° 0 mm 0 m/s 732 mmHg 68%
18:00 +2°C° 0 mm 0 m/s 732 mmHg 73%
19:00 +1°C° 0 mm 0 m/s 732 mmHg 78%
20:00 +1°C° 0 mm 0 m/s 732 mmHg 79%
21:00 +1°C° 0 mm 0 m/s 732 mmHg 81%
22:00 +1°C° 0 mm 0 m/s 732 mmHg 83%
23:00 0°C° 0.1 mm 0 m/s 732 mmHg 87%

9 Março, Terça-feira

Tempo Temperatura Precipitação Vento Pressão Humidade
00:00 +1°C° 0.1 mm 1 m/s 732 mmHg 92%
01:00 0°C° 0.1 mm 1 m/s 732 mmHg 97%
02:00 0°C° 0 mm 1 m/s 732 mmHg 97%
03:00 0°C° 0 mm 1 m/s 731 mmHg 97%
04:00 0°C° 0 mm 1 m/s 731 mmHg 97%
05:00 0°C° 0 mm 1 m/s 731 mmHg 96%
06:00 +1°C° 0 mm 1 m/s 732 mmHg 96%
07:00 +1°C° 0 mm 1 m/s 732 mmHg 95%
08:00 +2°C° 0 mm 1 m/s 732 mmHg 89%
09:00 +2°C° 0 mm 2 m/s 732 mmHg 83%
10:00 +3°C° 0 mm 2 m/s 732 mmHg 77%
11:00 +4°C° 0 mm 2 m/s 732 mmHg 73%
12:00 +5°C° 0 mm 2 m/s 732 mmHg 70%
13:00 +6°C° 0 mm 2 m/s 732 mmHg 66%
14:00 +6°C° 0 mm 2 m/s 732 mmHg 67%
15:00 +6°C° 0 mm 2 m/s 732 mmHg 68%
16:00 +5°C° 0 mm 3 m/s 732 mmHg 68%
17:00 +5°C° 0 mm 2 m/s 731 mmHg 73%
18:00 +4°C° 0 mm 2 m/s 731 mmHg 78%
19:00 +4°C° 0 mm 1 m/s 731 mmHg 83%
20:00 +3°C° 0 mm 2 m/s 731 mmHg 84%
21:00 +3°C° 0 mm 2 m/s 731 mmHg 85%
22:00 +2°C° 0 mm 2 m/s 731 mmHg 86%
23:00 +2°C° 0 mm 2 m/s 731 mmHg 87%

10 Março, Quarta-feira

Tempo Temperatura Precipitação Vento Pressão Humidade
00:00 +2°C° 0 mm 2 m/s 731 mmHg 88%
01:00 +1°C° 0 mm 2 m/s 730 mmHg 89%
02:00 0°C° 0 mm 3 m/s 730 mmHg 88%
03:00 0°C° 0 mm 3 m/s 729 mmHg 87%
04:00 0°C° 0 mm 3 m/s 729 mmHg 86%
05:00 0°C° 0 mm 4 m/s 729 mmHg 84%
06:00 0°C° 0 mm 4 m/s 728 mmHg 82%
07:00 0°C° 0 mm 4 m/s 728 mmHg 80%
08:00 +1°C° 0 mm 5 m/s 727 mmHg 76%
09:00 +1°C° 0 mm 6 m/s 727 mmHg 73%
10:00 +2°C° 0 mm 6 m/s 727 mmHg 70%
11:00 +2°C° 0.8 mm 7 m/s 726 mmHg 77%
12:00 0°C° 0.8 mm 7 m/s 726 mmHg 85%
13:00 0°C° 0.8 mm 7 m/s 725 mmHg 92%
14:00 0°C° 1.6 mm 7 m/s 725 mmHg 92%
15:00 +2°C° 1.6 mm 7 m/s 724 mmHg 92%
16:00 +2°C° 1.6 mm 7 m/s 723 mmHg 92%
17:00 +3°C° 1.8 mm 6 m/s 723 mmHg 92%
18:00 +3°C° 1.8 mm 6 m/s 723 mmHg 92%
19:00 +3°C° 1.8 mm 6 m/s 722 mmHg 91%
20:00 +4°C° 0.8 mm 7 m/s 722 mmHg 91%
21:00 +4°C° 0.8 mm 7 m/s 722 mmHg 90%
22:00 +4°C° 0.8 mm 7 m/s 721 mmHg 89%
23:00 +5°C° 0.2 mm 7 m/s 721 mmHg 88%
Mostrar mais

Necessitamos do seu Consentimento

A Meteoprog e os seus Fornecedores de Serviços podem armazenar e aceder a dados pessoais como cookies, identificadores do dispositivo ou outras tecnologias semelhantes existentes no seu dispositivo e processar estes dados para personalizar conteúdos e anúncios, assim como funcionalidades nas redes sociais e análise de tráfego.

  • Armazenar e/ou aceder a informações no seu dispositivo

    Os cookies, identificadores do dispositivo ou outras informações podem ser armazenados ou acedidos no seu dispositivo, para os fins acima indicados.

  • Anúncios e conteúdos personalizados, medição de anúncios e conteúdos, dados sobre o público-alvo e desenvolvimento de produtos

    Os anúncios e os conteúdos podem ser personalizados com base num perfil. Podem ser adicionados dados adicionais para uma maior personalização dos anúncios e dos conteúdos. A eficácia dos anúncios e dos conteúdos pode ser medida. Podem ser obtidas informações sobre o público que visualizou os anúncios e os conteúdos. Estes dados podem ser usados para desenvolver ou melhorar sistemas, softwares ou a experiência do utilizador.

Ao clicar em "Eu concordo”, permitirá o uso de cookies, identificadores do dispositivo e web beacons mencionados ou outras tecnologias semelhantes. As configurações do navegador do seu dispositivo podem ser alteradas.

Para certos fins, podem ser invocados interesses legítimos ao invés de consentimento. Pode ler mais informação sobre este assunto na nossa Política de Privacidade e Cookies.